owner,sensor,date,latitude,longitude,vertical_datum,wind_speed,wind_to_direction,wind_speed_of_gust,qcFlag 
NDBC,ioos:station:NOAA.NDBC:SGOF1:1,2015-10-01T00:00:00Z,29.4080,-84.8580,35.1,6.2,-9999.0,6.7,'1111122,1111122,1111122' 
NDBC,ioos:station:NOAA.NDBC:SGOF1:1,2015-10-01T01:00:00Z,29.4080,-84.8580,35.1,6.2,-9999.0,6.7,'1111122,1111122,1111122' 
NDBC,ioos:station:NOAA.NDBC:SGOF1:1,2015-10-01T02:00:00Z,29.4080,-84.8580,35.1,6.2,-9999.0,6.7,'1111122,1111122,1111122' 
NDBC,ioos:station:NOAA.NDBC:SGOF1:1,2015-10-01T03:00:00Z,29.4080,-84.8580,35.1,5.7,-9999.0,5.7,'1111122,1111122,1111122' 
NDBC,ioos:station:NOAA.NDBC:SGOF1:1,2015-10-01T04:00:00Z,29.4080,-84.8580,35.1,5.1,-9999.0,5.1,'1111122,1111122,1111122' 
NDBC,ioos:station:NOAA.NDBC:SGOF1:1,2015-10-01T05:00:00Z,29.4080,-84.8580,35.1,4.6,-9999.0,5.1,'1111122,1111122,1111122' 
NDBC,ioos:station:NOAA.NDBC:SGOF1:1,2015-10-01T06:00:00Z,29.4080,-84.8580,35.1,5.1,-9999.0,5.1,'1111122,1111122,1111122' 
NDBC,ioos:station:NOAA.NDBC:SGOF1:1,2015-10-01T09:00:00Z,29.4080,-84.8580,35.1,6.7,-9999.0,7.2,'1111122,1111122,1111122' 
NDBC,ioos:station:NOAA.NDBC:SGOF1:1,2015-10-01T10:00:00Z,29.4080,-84.8580,35.1,6.7,-9999.0,7.2,'1111122,1111122,1111122' 
NDBC,ioos:station:NOAA.NDBC:SGOF1:1,2015-10-01T12:00:00Z,29.4080,-84.8580,35.1,6.2,-9999.0,6.7,'1111122,1111122,1111122' 
NDBC,ioos:station:NOAA.NDBC:SGOF1:1,2015-10-01T15:00:00Z,29.4080,-84.8580,35.1,6.2,-9999.0,7.2,'1111122,1111122,1111122' 
NDBC,ioos:station:NOAA.NDBC:SGOF1:1,2015-10-01T16:00:00Z,29.4080,-84.8580,35.1,5.7,-9999.0,6.2,'1111122,1111122,1111122' 
NDBC,ioos:station:NOAA.NDBC:SGOF1:1,2015-10-01T18:00:00Z,29.4080,-84.8580,35.1,4.1,-9999.0,4.6,'1111122,1111122,1111122' 
NDBC,ioos:station:NOAA.NDBC:SGOF1:1,2015-10-01T20:00:00Z,29.4080,-84.8580,35.1,5.1,-9999.0,5.7,'1111122,1111122,1111122' 
NDBC,ioos:station:NOAA.NDBC:SGOF1:1,2015-10-01T21:00:00Z,29.4080,-84.8580,35.1,4.1,-9999.0,4.6,'1111122,1111122,1111122' 
NDBC,ioos:station:NOAA.NDBC:SGOF1:1,2015-10-01T22:00:00Z,29.4080,-84.8580,35.1,8.2,-9999.0,9.3,'1111122,1111122,1111122' 
NDBC,ioos:station:NOAA.NDBC:SGOF1:1,2015-10-01T23:00:00Z,29.4080,-84.8580,35.1,9.3,-9999.0,9.8,'1111122,1111122,1111122' 
NDBC,ioos:station:NOAA.NDBC:SGOF1:1,2015-10-02T01:00:00Z,29.4080,-84.8580,35.1,9.8,-9999.0,10.8,'1111122,1111122,1111122' 
NDBC,ioos:station:NOAA.NDBC:SGOF1:1,2015-10-02T02:00:00Z,29.4080,-84.8580,35.1,11.3,-9999.0,12.4,'1111122,1111122,1111122' 
NDBC,ioos:station:NOAA.NDBC:SGOF1:1,2015-10-02T03:00:00Z,29.4080,-84.8580,35.1,9.8,-9999.0,11.3,'1111122,1111122,1111122' 
NDBC,ioos:station:NOAA.NDBC:SGOF1:1,2015-10-02T04:00:00Z,29.4080,-84.8580,35.1,8.8,-9999.0,9.8,'1111122,1111122,1111122' 
NDBC,ioos:station:NOAA.NDBC:SGOF1:1,2015-10-02T05:00:00Z,29.4080,-84.8580,35.1,9.3,-9999.0,10.3,'1111122,1111122,1111122' 
NDBC,ioos:station:NOAA.NDBC:SGOF1:1,2015-10-02T06:00:00Z,29.4080,-84.8580,35.1,9.3,-9999.0,10.3,'1111122,1111122,1111122' 
NDBC,ioos:station:NOAA.NDBC:SGOF1:1,2015-10-02T08:00:00Z,29.4080,-84.8580,35.1,8.2,-9999.0,9.3,'1111122,1111122,1111122' 
NDBC,ioos:station:NOAA.NDBC:SGOF1:1,2015-10-02T09:00:00Z,29.4080,-84.8580,35.1,8.2,-9999.0,9.3,'1111122,1111122,1111122' 
NDBC,ioos:station:NOAA.NDBC:SGOF1:1,2015-10-02T10:00:00Z,29.4080,-84.8580,35.1,8.2,-9999.0,9.3,'1111122,1111122,1111122' 
NDBC,ioos:station:NOAA.NDBC:SGOF1:1,2015-10-02T11:00:00Z,29.4080,-84.8580,35.1,7.2,-9999.0,7.7,'1111122,1111122,1111122' 
NDBC,ioos:station:NOAA.NDBC:SGOF1:1,2015-10-02T12:00:00Z,29.4080,-84.8580,35.1,7.2,-9999.0,8.2,'1111122,1111122,1111122' 
NDBC,ioos:station:NOAA.NDBC:SGOF1:1,2015-10-02T13:00:00Z,29.4080,-84.8580,35.1,6.7,-9999.0,7.2,'1111122,1111122,1111122' 
NDBC,ioos:station:NOAA.NDBC:SGOF1:1,2015-10-02T16:00:00Z,29.4080,-84.8580,35.1,5.7,-9999.0,6.7,'1111122,1111122,1111122' 
NDBC,ioos:station:NOAA.NDBC:SGOF1:1,2015-10-02T17:00:00Z,29.4080,-84.8580,35.1,6.7,-9999.0,7.2,'1111122,1111122,1111122' 
NDBC,ioos:station:NOAA.NDBC:SGOF1:1,2015-10-02T18:00:00Z,29.4080,-84.8580,35.1,6.2,-9999.0,7.2,'1111122,1111122,1111122' 
NDBC,ioos:station:NOAA.NDBC:SGOF1:1,2015-10-02T20:00:00Z,29.4080,-84.8580,35.1,6.2,-9999.0,6.7,'1111122,1111122,1111122' 
NDBC,ioos:station:NOAA.NDBC:SGOF1:1,2015-10-02T21:00:00Z,29.4080,-84.8580,35.1,6.2,-9999.0,6.7,'1111122,1111122,1111122' 
NDBC,ioos:station:NOAA.NDBC:SGOF1:1,2015-10-02T22:00:00Z,29.4080,-84.8580,35.1,7.7,-9999.0,8.2,'1111122,1111122,1111122' 
NDBC,ioos:station:NOAA.NDBC:SGOF1:1,2015-10-02T23:00:00Z,29.4080,-84.8580,35.1,9.8,-9999.0,10.3,'1111122,1111122,1111122' 
NDBC,ioos:station:NOAA.NDBC:SGOF1:1,2015-10-03T04:00:00Z,29.4080,-84.8580,35.1,11.3,-9999.0,12.4,'1111122,1111122,1111122' 
NDBC,ioos:station:NOAA.NDBC:SGOF1:1,2015-10-03T05:00:00Z,29.4080,-84.8580,35.1,10.3,-9999.0,11.3,'1111122,1111122,1111122' 
NDBC,ioos:station:NOAA.NDBC:SGOF1:1,2015-10-03T06:00:00Z,29.4080,-84.8580,35.1,9.3,-9999.0,10.8,'1111122,1111122,1111122' 
NDBC,ioos:station:NOAA.NDBC:SGOF1:1,2015-10-03T07:00:00Z,29.4080,-84.8580,35.1,8.8,-9999.0,9.8,'1111122,1111122,1111122' 
NDBC,ioos:station:NOAA.NDBC:SGOF1:1,2015-10-03T08:00:00Z,29.4080,-84.8580,35.1,7.2,-9999.0,8.2,'1111122,1111122,1111122' 
NDBC,ioos:station:NOAA.NDBC:SGOF1:1,2015-10-03T09:00:00Z,29.4080,-84.8580,35.1,7.2,-9999.0,8.2,'1111122,1111122,1111122' 
NDBC,ioos:station:NOAA.NDBC:SGOF1:1,2015-10-03T10:00:00Z,29.4080,-84.8580,35.1,8.8,-9999.0,9.8,'1111122,1111122,1111122' 
NDBC,ioos:station:NOAA.NDBC:SGOF1:1,2015-10-03T11:00:00Z,29.4080,-84.8580,35.1,6.7,-9999.0,8.2,'1111122,1111122,1111122' 
NDBC,ioos:station:NOAA.NDBC:SGOF1:1,2015-10-03T12:00:00Z,29.4080,-84.8580,35.1,8.2,-9999.0,8.8,'1111122,1111122,1111122' 
NDBC,ioos:station:NOAA.NDBC:SGOF1:1,2015-10-03T13:00:00Z,29.4080,-84.8580,35.1,7.7,-9999.0,8.8,'1111122,1111122,1111122' 
NDBC,ioos:station:NOAA.NDBC:SGOF1:1,2015-10-03T14:00:00Z,29.4080,-84.8580,35.1,7.2,-9999.0,8.2,'1111122,1111122,1111122' 
NDBC,ioos:station:NOAA.NDBC:SGOF1:1,2015-10-03T15:00:00Z,29.4080,-84.8580,35.1,7.7,-9999.0,8.8,'1111122,1111122,1111122' 
NDBC,ioos:station:NOAA.NDBC:SGOF1:1,2015-10-03T16:00:00Z,29.4080,-84.8580,35.1,6.7,-9999.0,7.2,'1111122,1111122,1111122' 
NDBC,ioos:station:NOAA.NDBC:SGOF1:1,2015-10-03T18:00:00Z,29.4080,-84.8580,35.1,6.7,-9999.0,7.7,'1111122,1111122,1111122' 
NDBC,ioos:station:NOAA.NDBC:SGOF1:1,2015-10-03T19:00:00Z,29.4080,-84.8580,35.1,6.2,-9999.0,7.7,'1111122,1111122,1111122' 
NDBC,ioos:station:NOAA.NDBC:SGOF1:1,2015-10-03T20:00:00Z,29.4080,-84.8580,35.1,6.7,-9999.0,7.7,'1111122,1111122,1111122' 
NDBC,ioos:station:NOAA.NDBC:SGOF1:1,2015-10-03T21:00:00Z,29.4080,-84.8580,35.1,6.7,-9999.0,7.7,'1111122,1111122,1111122' 
NDBC,ioos:station:NOAA.NDBC:SGOF1:1,2015-10-03T23:00:00Z,29.4080,-84.8580,35.1,8.2,-9999.0,9.8,'1111122,1111122,1111122' 
NDBC,ioos:station:NOAA.NDBC:SGOF1:1,2015-10-04T02:00:00Z,29.4080,-84.8580,35.1,6.7,-9999.0,7.7,'1111122,1111122,1111122' 
NDBC,ioos:station:NOAA.NDBC:SGOF1:1,2015-10-04T04:00:00Z,29.4080,-84.8580,35.1,8.8,-9999.0,9.8,'1111122,1111122,1111122' 
NDBC,ioos:station:NOAA.NDBC:SGOF1:1,2015-10-04T05:00:00Z,29.4080,-84.8580,35.1,8.2,-9999.0,8.8,'1111122,1111122,1111122' 
NDBC,ioos:station:NOAA.NDBC:SGOF1:1,2015-10-04T06:00:00Z,29.4080,-84.8580,35.1,8.2,-9999.0,9.3,'1111122,1111122,1111122' 
NDBC,ioos:station:NOAA.NDBC:SGOF1:1,2015-10-04T09:00:00Z,29.4080,-84.8580,35.1,8.2,-9999.0,9.3,'1111122,1111122,1111122' 
NDBC,ioos:station:NOAA.NDBC:SGOF1:1,2015-10-04T10:00:00Z,29.4080,-84.8580,35.1,7.7,-9999.0,8.2,'1111122,1111122,1111122' 
NDBC,ioos:station:NOAA.NDBC:SGOF1:1,2015-10-04T11:00:00Z,29.4080,-84.8580,35.1,9.8,-9999.0,11.3,'1111122,1111122,1111122' 
NDBC,ioos:station:NOAA.NDBC:SGOF1:1,2015-10-04T12:00:00Z,29.4080,-84.8580,35.1,8.8,-9999.0,9.8,'1111122,1111122,1111122' 
NDBC,ioos:station:NOAA.NDBC:SGOF1:1,2015-10-04T13:00:00Z,29.4080,-84.8580,35.1,10.8,-9999.0,11.8,'1111122,1111122,1111122' 
NDBC,ioos:station:NOAA.NDBC:SGOF1:1,2015-10-04T14:00:00Z,29.4080,-84.8580,35.1,9.3,-9999.0,10.3,'1111122,1111122,1111122' 
NDBC,ioos:station:NOAA.NDBC:SGOF1:1,2015-10-04T15:00:00Z,29.4080,-84.8580,35.1,7.2,-9999.0,7.7,'1111122,1111122,1111122' 
NDBC,ioos:station:NOAA.NDBC:SGOF1:1,2015-10-04T16:00:00Z,29.4080,-84.8580,35.1,11.8,-9999.0,13.4,'1111122,1111122,1111122' 
NDBC,ioos:station:NOAA.NDBC:SGOF1:1,2015-10-04T17:00:00Z,29.4080,-84.8580,35.1,10.8,-9999.0,11.3,'1111122,1111122,1111122' 
NDBC,ioos:station:NOAA.NDBC:SGOF1:1,2015-10-04T18:00:00Z,29.4080,-84.8580,35.1,8.2,-9999.0,9.3,'1111122,1111122,1111122' 
NDBC,ioos:station:NOAA.NDBC:SGOF1:1,2015-10-04T19:00:00Z,29.4080,-84.8580,35.1,9.8,-9999.0,10.3,'1111122,1111122,1111122' 
NDBC,ioos:station:NOAA.NDBC:SGOF1:1,2015-10-04T20:00:00Z,29.4080,-84.8580,35.1,6.2,-9999.0,7.2,'1111122,1111122,1111122' 
NDBC,ioos:station:NOAA.NDBC:SGOF1:1,2015-10-04T21:00:00Z,29.4080,-84.8580,35.1,8.2,-9999.0,8.8,'1111122,1111122,1111122' 
NDBC,ioos:station:NOAA.NDBC:SGOF1:1,2015-10-04T22:00:00Z,29.4080,-84.8580,35.1,8.2,-9999.0,8.8,'1111122,1111122,1111122' 
NDBC,ioos:station:NOAA.NDBC:SGOF1:1,2015-10-05T02:00:00Z,29.4080,-84.8580,35.1,7.7,-9999.0,8.8,'1111122,1111122,1111122' 
NDBC,ioos:station:NOAA.NDBC:SGOF1:1,2015-10-05T03:00:00Z,29.4080,-84.8580,35.1,7.7,-9999.0,9.8,'1111122,1111122,1111122' 
NDBC,ioos:station:NOAA.NDBC:SGOF1:1,2015-10-05T04:00:00Z,29.4080,-84.8580,35.1,8.2,-9999.0,8.8,'1111122,1111122,1111122' 
NDBC,ioos:station:NOAA.NDBC:SGOF1:1,2015-10-05T05:00:00Z,29.4080,-84.8580,35.1,8.2,-9999.0,10.8,'1111122,1111122,1111122' 
NDBC,ioos:station:NOAA.NDBC:SGOF1:1,2015-10-05T08:00:00Z,29.4080,-84.8580,35.1,9.8,-9999.0,10.8,'1111122,1111122,1111122' 
NDBC,ioos:station:NOAA.NDBC:SGOF1:1,2015-10-05T11:00:00Z,29.4080,-84.8580,35.1,9.8,-9999.0,11.3,'1111122,1111122,1111122' 
NDBC,ioos:station:NOAA.NDBC:SGOF1:1,2015-10-05T12:00:00Z,29.4080,-84.8580,35.1,10.3,-9999.0,10.8,'1111122,1111122,1111122' 
NDBC,ioos:station:NOAA.NDBC:SGOF1:1,2015-10-05T13:00:00Z,29.4080,-84.8580,35.1,8.8,-9999.0,9.8,'1111122,1111122,1111122' 
NDBC,ioos:station:NOAA.NDBC:SGOF1:1,2015-10-05T14:00:00Z,29.4080,-84.8580,35.1,9.3,-9999.0,9.8,'1111122,1111122,1111122' 
NDBC,ioos:station:NOAA.NDBC:SGOF1:1,2015-10-05T15:00:00Z,29.4080,-84.8580,35.1,9.8,-9999.0,11.3,'1111122,1111122,1111122' 
NDBC,ioos:station:NOAA.NDBC:SGOF1:1,2015-10-05T16:00:00Z,29.4080,-84.8580,35.1,8.2,-9999.0,9.3,'1111122,1111122,1111122' 
NDBC,ioos:station:NOAA.NDBC:SGOF1:1,2015-10-05T17:00:00Z,29.4080,-84.8580,35.1,5.1,-9999.0,5.7,'1111122,1111122,1111122' 
NDBC,ioos:station:NOAA.NDBC:SGOF1:1,2015-10-05T18:00:00Z,29.4080,-84.8580,35.1,5.1,-9999.0,5.7,'1111122,1111122,1111122' 
NDBC,ioos:station:NOAA.NDBC:SGOF1:1,2015-10-05T19:00:00Z,29.4080,-84.8580,35.1,4.6,-9999.0,5.7,'1111122,1111122,1111122' 
NDBC,ioos:station:NOAA.NDBC:SGOF1:1,2015-10-05T20:00:00Z,29.4080,-84.8580,35.1,3.6,-9999.0,4.6,'1111122,1111122,1111122' 
NDBC,ioos:station:NOAA.NDBC:SGOF1:1,2015-10-05T21:00:00Z,29.4080,-84.8580,35.1,8.8,-9999.0,10.3,'1111122,1111122,1111122' 
NDBC,ioos:station:NOAA.NDBC:SGOF1:1,2015-10-05T22:00:00Z,29.4080,-84.8580,35.1,9.8,-9999.0,10.3,'1111122,1111122,1111122' 
NDBC,ioos:station:NOAA.NDBC:SGOF1:1,2015-10-06T00:00:00Z,29.4080,-84.8580,35.1,10.3,-9999.0,11.3,'1111122,1111122,1111122' 
NDBC,ioos:station:NOAA.NDBC:SGOF1:1,2015-10-06T01:00:00Z,29.4080,-84.8580,35.1,11.3,-9999.0,12.4,'1111122,1111122,1111122' 
NDBC,ioos:station:NOAA.NDBC:SGOF1:1,2015-10-06T02:00:00Z,29.4080,-84.8580,35.1,8.2,-9999.0,9.3,'1111122,1111122,1111122' 
NDBC,ioos:station:NOAA.NDBC:SGOF1:1,2015-10-06T03:00:00Z,29.4080,-84.8580,35.1,7.7,-9999.0,10.3,'1111122,1111122,1111122' 
NDBC,ioos:station:NOAA.NDBC:SGOF1:1,2015-10-06T04:00:00Z,29.4080,-84.8580,35.1,7.7,-9999.0,8.8,'1111122,1111122,1111122' 
NDBC,ioos:station:NOAA.NDBC:SGOF1:1,2015-10-06T05:00:00Z,29.4080,-84.8580,35.1,6.7,-9999.0,8.2,'1111122,1111122,1111122' 
NDBC,ioos:station:NOAA.NDBC:SGOF1:1,2015-10-06T06:00:00Z,29.4080,-84.8580,35.1,7.2,-9999.0,7.7,'1111122,1111122,1111122' 
NDBC,ioos:station:NOAA.NDBC:SGOF1:1,2015-10-06T07:00:00Z,29.4080,-84.8580,35.1,6.7,-9999.0,7.7,'1111122,1111122,1111122' 
NDBC,ioos:station:NOAA.NDBC:SGOF1:1,2015-10-06T09:00:00Z,29.4080,-84.8580,35.1,7.2,-9999.0,8.2,'1111122,1111122,1111122' 
NDBC,ioos:station:NOAA.NDBC:SGOF1:1,2015-10-06T10:00:00Z,29.4080,-84.8580,35.1,7.2,-9999.0,8.2,'1111122,1111122,1111122' 
NDBC,ioos:station:NOAA.NDBC:SGOF1:1,2015-10-06T11:00:00Z,29.4080,-84.8580,35.1,8.2,-9999.0,9.3,'1111122,1111122,1111122' 
NDBC,ioos:station:NOAA.NDBC:SGOF1:1,2015-10-06T14:00:00Z,29.4080,-84.8580,35.1,7.2,-9999.0,8.2,'1111122,1111122,1111122' 
NDBC,ioos:station:NOAA.NDBC:SGOF1:1,2015-10-06T15:00:00Z,29.4080,-84.8580,35.1,8.2,-9999.0,8.8,'1111122,1111122,1111122' 
NDBC,ioos:station:NOAA.NDBC:SGOF1:1,2015-10-06T16:00:00Z,29.4080,-84.8580,35.1,7.7,-9999.0,8.8,'1111122,1111122,1111122' 
NDBC,ioos:station:NOAA.NDBC:SGOF1:1,2015-10-06T17:00:00Z,29.4080,-84.8580,35.1,6.2,-9999.0,7.2,'1111122,1111122,1111122' 
NDBC,ioos:station:NOAA.NDBC:SGOF1:1,2015-10-06T18:00:00Z,29.4080,-84.8580,35.1,5.1,-9999.0,6.2,'1111122,1111122,1111122' 
NDBC,ioos:station:NOAA.NDBC:SGOF1:1,2015-10-06T19:00:00Z,29.4080,-84.8580,35.1,4.1,-9999.0,4.6,'1111122,1111122,1111122' 
NDBC,ioos:station:NOAA.NDBC:SGOF1:1,2015-10-06T20:00:00Z,29.4080,-84.8580,35.1,4.6,-9999.0,5.7,'1111122,1111122,1111122' 
NDBC,ioos:station:NOAA.NDBC:SGOF1:1,2015-10-06T21:00:00Z,29.4080,-84.8580,35.1,5.1,-9999.0,5.7,'1111122,1111122,1111122' 
NDBC,ioos:station:NOAA.NDBC:SGOF1:1,2015-10-06T22:00:00Z,29.4080,-84.8580,35.1,5.1,-9999.0,6.2,'1111122,1111122,1111122' 
NDBC,ioos:station:NOAA.NDBC:SGOF1:1,2015-10-07T00:00:00Z,29.4080,-84.8580,35.1,4.1,-9999.0,4.6,'1111122,1111122,1111122' 
NDBC,ioos:station:NOAA.NDBC:SGOF1:1,2015-10-07T01:00:00Z,29.4080,-84.8580,35.1,5.7,-9999.0,6.2,'1111122,1111122,1111122' 
NDBC,ioos:station:NOAA.NDBC:SGOF1:1,2015-10-07T02:00:00Z,29.4080,-84.8580,35.1,6.2,-9999.0,6.7,'1111122,1111122,1111122' 
NDBC,ioos:station:NOAA.NDBC:SGOF1:1,2015-10-07T03:00:00Z,29.4080,-84.8580,35.1,4.6,-9999.0,5.7,'1111122,1111122,1111122' 
NDBC,ioos:station:NOAA.NDBC:SGOF1:1,2015-10-07T04:00:00Z,29.4080,-84.8580,35.1,5.1,-9999.0,6.2,'1111122,1111122,1111122' 
NDBC,ioos:station:NOAA.NDBC:SGOF1:1,2015-10-07T05:00:00Z,29.4080,-84.8580,35.1,6.2,-9999.0,7.2,'1111122,1111122,1111122' 
NDBC,ioos:station:NOAA.NDBC:SGOF1:1,2015-10-07T06:00:00Z,29.4080,-84.8580,35.1,6.7,-9999.0,7.2,'1111122,1111122,1111122' 
NDBC,ioos:station:NOAA.NDBC:SGOF1:1,2015-10-07T07:00:00Z,29.4080,-84.8580,35.1,7.7,-9999.0,8.8,'1111122,1111122,1111122' 
NDBC,ioos:station:NOAA.NDBC:SGOF1:1,2015-10-07T09:00:00Z,29.4080,-84.8580,35.1,7.7,-9999.0,8.8,'1111122,1111122,1111122' 
NDBC,ioos:station:NOAA.NDBC:SGOF1:1,2015-10-07T10:00:00Z,29.4080,-84.8580,35.1,6.7,-9999.0,7.2,'1111122,1111122,1111122' 
NDBC,ioos:station:NOAA.NDBC:SGOF1:1,2015-10-07T12:00:00Z,29.4080,-84.8580,35.1,6.7,-9999.0,7.7,'1111122,1111122,1111122' 
NDBC,ioos:station:NOAA.NDBC:SGOF1:1,2015-10-07T13:00:00Z,29.4080,-84.8580,35.1,7.2,-9999.0,7.7,'1111122,1111122,1111122' 
NDBC,ioos:station:NOAA.NDBC:SGOF1:1,2015-10-07T15:00:00Z,29.4080,-84.8580,35.1,5.7,-9999.0,6.2,'1111122,1111122,1111122' 
NDBC,ioos:station:NOAA.NDBC:SGOF1:1,2015-10-07T20:00:00Z,29.4080,-84.8580,35.1,5.1,-9999.0,5.7,'1111122,1111122,1111122' 
NDBC,ioos:station:NOAA.NDBC:SGOF1:1,2015-10-07T21:00:00Z,29.4080,-84.8580,35.1,5.7,-9999.0,6.2,'1111122,1111122,1111122' 
NDBC,ioos:station:NOAA.NDBC:SGOF1:1,2015-10-07T22:00:00Z,29.4080,-84.8580,35.1,5.7,-9999.0,5.7,'1111122,1111122,1111122' 
NDBC,ioos:station:NOAA.NDBC:SGOF1:1,2015-10-08T00:00:00Z,29.4080,-84.8580,35.1,5.1,-9999.0,5.1,'1111122,1111122,1111122' 
NDBC,ioos:station:NOAA.NDBC:SGOF1:1,2015-10-08T01:00:00Z,29.4080,-84.8580,35.1,5.7,-9999.0,6.2,'1111122,1111122,1111122' 
NDBC,ioos:station:NOAA.NDBC:SGOF1:1,2015-10-08T02:00:00Z,29.4080,-84.8580,35.1,6.2,-9999.0,6.7,'1111122,1111122,1111122' 
NDBC,ioos:station:NOAA.NDBC:SGOF1:1,2015-10-08T03:00:00Z,29.4080,-84.8580,35.1,6.7,-9999.0,7.2,'1111122,1111122,1111122' 
NDBC,ioos:station:NOAA.NDBC:SGOF1:1,2015-10-08T04:00:00Z,29.4080,-84.8580,35.1,5.7,-9999.0,6.2,'1111122,1111122,1111122' 
NDBC,ioos:station:NOAA.NDBC:SGOF1:1,2015-10-08T05:00:00Z,29.4080,-84.8580,35.1,5.7,-9999.0,6.2,'1111122,1111122,1111122' 
NDBC,ioos:station:NOAA.NDBC:SGOF1:1,2015-10-08T06:00:00Z,29.4080,-84.8580,35.1,7.2,-9999.0,7.7,'1111122,1111122,1111122' 
NDBC,ioos:station:NOAA.NDBC:SGOF1:1,2015-10-08T07:00:00Z,29.4080,-84.8580,35.1,9.3,-9999.0,9.8,'1111122,1111122,1111122' 
NDBC,ioos:station:NOAA.NDBC:SGOF1:1,2015-10-08T08:00:00Z,29.4080,-84.8580,35.1,8.2,-9999.0,9.3,'1111122,1111122,1111122' 
NDBC,ioos:station:NOAA.NDBC:SGOF1:1,2015-10-08T09:00:00Z,29.4080,-84.8580,35.1,8.8,-9999.0,9.8,'1111122,1111122,1111122' 
NDBC,ioos:station:NOAA.NDBC:SGOF1:1,2015-10-08T10:00:00Z,29.4080,-84.8580,35.1,8.2,-9999.0,8.8,'1111122,1111122,1111122' 
NDBC,ioos:station:NOAA.NDBC:SGOF1:1,2015-10-08T11:00:00Z,29.4080,-84.8580,35.1,7.7,-9999.0,8.2,'1111122,1111122,1111122' 
NDBC,ioos:station:NOAA.NDBC:SGOF1:1,2015-10-08T12:00:00Z,29.4080,-84.8580,35.1,6.2,-9999.0,7.2,'1111122,1111122,1111122' 
NDBC,ioos:station:NOAA.NDBC:SGOF1:1,2015-10-08T13:00:00Z,29.4080,-84.8580,35.1,6.2,-9999.0,6.7,'1111122,1111122,1111122' 
NDBC,ioos:station:NOAA.NDBC:SGOF1:1,2015-10-08T14:00:00Z,29.4080,-84.8580,35.1,6.7,-9999.0,7.7,'1111122,1111122,1111122' 
NDBC,ioos:station:NOAA.NDBC:SGOF1:1,2015-10-08T15:00:00Z,29.4080,-84.8580,35.1,6.2,-9999.0,7.2,'1111122,1111122,1111122' 
NDBC,ioos:station:NOAA.NDBC:SGOF1:1,2015-10-08T17:00:00Z,29.4080,-84.8580,35.1,5.7,-9999.0,6.2,'1111122,1111122,1111122' 
NDBC,ioos:station:NOAA.NDBC:SGOF1:1,2015-10-08T18:00:00Z,29.4080,-84.8580,35.1,5.7,-9999.0,6.2,'1111122,1111122,1111122' 
NDBC,ioos:station:NOAA.NDBC:SGOF1:1,2015-10-08T19:00:00Z,29.4080,-84.8580,35.1,5.1,-9999.0,6.2,'1111122,1111122,1111122' 
NDBC,ioos:station:NOAA.NDBC:SGOF1:1,2015-10-08T21:00:00Z,29.4080,-84.8580,35.1,5.7,-9999.0,6.2,'1111122,1111122,1111122' 
NDBC,ioos:station:NOAA.NDBC:SGOF1:1,2015-10-08T22:00:00Z,29.4080,-84.8580,35.1,5.1,-9999.0,5.7,'1111122,1111122,1111122' 
NDBC,ioos:station:NOAA.NDBC:SGOF1:1,2015-10-09T00:00:00Z,29.4080,-84.8580,35.1,4.1,-9999.0,4.6,'1111122,1111122,1111122' 
NDBC,ioos:station:NOAA.NDBC:SGOF1:1,2015-10-09T01:00:00Z,29.4080,-84.8580,35.1,3.6,-9999.0,4.1,'1111122,1111122,1111122' 
NDBC,ioos:station:NOAA.NDBC:SGOF1:1,2015-10-09T02:00:00Z,29.4080,-84.8580,35.1,4.6,-9999.0,5.1,'1111122,1111122,1111122' 
NDBC,ioos:station:NOAA.NDBC:SGOF1:1,2015-10-09T03:00:00Z,29.4080,-84.8580,35.1,5.1,-9999.0,5.7,'1111122,1111122,1111122' 
NDBC,ioos:station:NOAA.NDBC:SGOF1:1,2015-10-09T04:00:00Z,29.4080,-84.8580,35.1,5.7,-9999.0,6.2,'1111122,1111122,1111122' 
NDBC,ioos:station:NOAA.NDBC:SGOF1:1,2015-10-09T05:00:00Z,29.4080,-84.8580,35.1,5.7,-9999.0,6.2,'1111122,1111122,1111122' 
NDBC,ioos:station:NOAA.NDBC:SGOF1:1,2015-10-09T06:00:00Z,29.4080,-84.8580,35.1,5.7,-9999.0,6.2,'1111122,1111122,1111122' 
NDBC,ioos:station:NOAA.NDBC:SGOF1:1,2015-10-09T07:00:00Z,29.4080,-84.8580,35.1,7.2,-9999.0,8.2,'1111122,1111122,1111122' 
NDBC,ioos:station:NOAA.NDBC:SGOF1:1,2015-10-09T08:00:00Z,29.4080,-84.8580,35.1,7.2,-9999.0,7.7,'1111122,1111122,1111122' 
NDBC,ioos:station:NOAA.NDBC:SGOF1:1,2015-10-09T09:00:00Z,29.4080,-84.8580,35.1,6.7,-9999.0,7.2,'1111122,1111122,1111122' 
NDBC,ioos:station:NOAA.NDBC:SGOF1:1,2015-10-09T10:00:00Z,29.4080,-84.8580,35.1,6.2,-9999.0,7.2,'1111122,1111122,1111122' 
NDBC,ioos:station:NOAA.NDBC:SGOF1:1,2015-10-09T11:00:00Z,29.4080,-84.8580,35.1,7.2,-9999.0,7.7,'1111122,1111122,1111122' 
NDBC,ioos:station:NOAA.NDBC:SGOF1:1,2015-10-09T12:00:00Z,29.4080,-84.8580,35.1,7.2,-9999.0,7.7,'1111122,1111122,1111122' 
NDBC,ioos:station:NOAA.NDBC:SGOF1:1,2015-10-09T13:00:00Z,29.4080,-84.8580,35.1,6.7,-9999.0,7.2,'1111122,1111122,1111122' 
NDBC,ioos:station:NOAA.NDBC:SGOF1:1,2015-10-09T14:00:00Z,29.4080,-84.8580,35.1,7.2,-9999.0,7.7,'1111122,1111122,1111122' 
NDBC,ioos:station:NOAA.NDBC:SGOF1:1,2015-10-09T15:00:00Z,29.4080,-84.8580,35.1,7.2,-9999.0,7.2,'1111122,1111122,1111122' 
NDBC,ioos:station:NOAA.NDBC:SGOF1:1,2015-10-09T16:00:00Z,29.4080,-84.8580,35.1,5.7,-9999.0,6.2,'1111122,1111122,1111122' 
NDBC,ioos:station:NOAA.NDBC:SGOF1:1,2015-10-09T17:00:00Z,29.4080,-84.8580,35.1,4.6,-9999.0,5.1,'1111122,1111122,1111122' 
NDBC,ioos:station:NOAA.NDBC:SGOF1:1,2015-10-09T18:00:00Z,29.4080,-84.8580,35.1,2.6,-9999.0,3.1,'1111122,1111122,1111122' 
NDBC,ioos:station:NOAA.NDBC:SGOF1:1,2015-10-09T19:00:00Z,29.4080,-84.8580,35.1,3.6,-9999.0,4.1,'1111122,1111122,1111122' 
NDBC,ioos:station:NOAA.NDBC:SGOF1:1,2015-10-09T21:00:00Z,29.4080,-84.8580,35.1,5.7,-9999.0,5.7,'1111122,1111122,1111122' 
NDBC,ioos:station:NOAA.NDBC:SGOF1:1,2015-10-11T00:00:00Z,29.4080,-84.8580,35.1,9.3,-9999.0,9.8,'1111122,1111122,1111122' 
NDBC,ioos:station:NOAA.NDBC:SGOF1:1,2015-10-11T03:00:00Z,29.4080,-84.8580,35.1,9.8,-9999.0,10.8,'1111122,1111122,1111122' 
NDBC,ioos:station:NOAA.NDBC:SGOF1:1,2015-10-11T04:00:00Z,29.4080,-84.8580,35.1,9.8,-9999.0,10.3,'1111122,1111122,1111122' 
NDBC,ioos:station:NOAA.NDBC:SGOF1:1,2015-10-11T05:00:00Z,29.4080,-84.8580,35.1,9.3,-9999.0,10.3,'1111122,1111122,1111122' 
NDBC,ioos:station:NOAA.NDBC:SGOF1:1,2015-10-11T06:00:00Z,29.4080,-84.8580,35.1,8.2,-9999.0,9.3,'1111122,1111122,1111122' 
NDBC,ioos:station:NOAA.NDBC:SGOF1:1,2015-10-11T07:00:00Z,29.4080,-84.8580,35.1,7.7,-9999.0,9.8,'1111122,1111122,1111122' 
NDBC,ioos:station:NOAA.NDBC:SGOF1:1,2015-10-11T10:00:00Z,29.4080,-84.8580,35.1,6.7,-9999.0,7.7,'1111122,1111122,1111122' 
NDBC,ioos:station:NOAA.NDBC:SGOF1:1,2015-10-11T11:00:00Z,29.4080,-84.8580,35.1,8.8,-9999.0,9.8,'1111122,1111122,1111122' 
NDBC,ioos:station:NOAA.NDBC:SGOF1:1,2015-10-11T12:00:00Z,29.4080,-84.8580,35.1,6.7,-9999.0,7.2,'1111122,1111122,1111122' 
NDBC,ioos:station:NOAA.NDBC:SGOF1:1,2015-10-11T13:00:00Z,29.4080,-84.8580,35.1,5.1,-9999.0,6.2,'1111122,1111122,1111122' 
NDBC,ioos:station:NOAA.NDBC:SGOF1:1,2015-10-11T14:00:00Z,29.4080,-84.8580,35.1,4.1,-9999.0,4.6,'1111122,1111122,1111122' 
NDBC,ioos:station:NOAA.NDBC:SGOF1:1,2015-10-11T15:00:00Z,29.4080,-84.8580,35.1,4.6,-9999.0,5.1,'1111122,1111122,1111122' 
NDBC,ioos:station:NOAA.NDBC:SGOF1:1,2015-10-11T16:00:00Z,29.4080,-84.8580,35.1,3.1,-9999.0,3.6,'1111122,1111122,1111122' 
NDBC,ioos:station:NOAA.NDBC:SGOF1:1,2015-10-11T17:00:00Z,29.4080,-84.8580,35.1,3.1,-9999.0,3.6,'1111122,1111122,1111122' 
NDBC,ioos:station:NOAA.NDBC:SGOF1:1,2015-10-11T18:00:00Z,29.4080,-84.8580,35.1,1.5,-9999.0,2.1,'1111122,1111122,1111122' 
NDBC,ioos:station:NOAA.NDBC:SGOF1:1,2015-10-11T19:00:00Z,29.4080,-84.8580,35.1,0.0,-9999.0,1.0,'1114422,1111122,1111122' 
NDBC,ioos:station:NOAA.NDBC:SGOF1:1,2015-10-11T20:00:00Z,29.4080,-84.8580,35.1,2.1,-9999.0,3.1,'1111122,1111122,1111122' 
NDBC,ioos:station:NOAA.NDBC:SGOF1:1,2015-10-11T21:00:00Z,29.4080,-84.8580,35.1,3.1,-9999.0,3.6,'1111122,1111122,1111122' 
NDBC,ioos:station:NOAA.NDBC:SGOF1:1,2015-10-11T22:00:00Z,29.4080,-84.8580,35.1,3.1,-9999.0,3.6,'1111122,1111122,1111122' 
NDBC,ioos:station:NOAA.NDBC:SGOF1:1,2015-10-11T23:00:00Z,29.4080,-84.8580,35.1,2.6,-9999.0,3.1,'1111122,1111122,1111122' 
NDBC,ioos:station:NOAA.NDBC:SGOF1:1,2015-10-12T00:00:00Z,29.4080,-84.8580,35.1,2.1,-9999.0,2.6,'1111122,1111122,1111122' 
NDBC,ioos:station:NOAA.NDBC:SGOF1:1,2015-10-12T01:00:00Z,29.4080,-84.8580,35.1,0.5,-9999.0,1.5,'1111122,1111122,1111122' 
NDBC,ioos:station:NOAA.NDBC:SGOF1:1,2015-10-12T02:00:00Z,29.4080,-84.8580,35.1,2.6,-9999.0,3.1,'1111122,1111122,1111122' 
NDBC,ioos:station:NOAA.NDBC:SGOF1:1,2015-10-12T03:00:00Z,29.4080,-84.8580,35.1,5.1,-9999.0,5.7,'1111122,1111122,1111122' 
NDBC,ioos:station:NOAA.NDBC:SGOF1:1,2015-10-12T04:00:00Z,29.4080,-84.8580,35.1,6.7,-9999.0,7.7,'1111122,1111122,1111122' 
NDBC,ioos:station:NOAA.NDBC:SGOF1:1,2015-10-12T05:00:00Z,29.4080,-84.8580,35.1,6.7,-9999.0,7.7,'1111122,1111122,1111122' 
NDBC,ioos:station:NOAA.NDBC:SGOF1:1,2015-10-12T06:00:00Z,29.4080,-84.8580,35.1,4.6,-9999.0,5.1,'1111122,1111122,1111122' 
NDBC,ioos:station:NOAA.NDBC:SGOF1:1,2015-10-12T07:00:00Z,29.4080,-84.8580,35.1,4.1,-9999.0,4.6,'1111122,1111122,1111122' 